Find Meteor-2

NORAD ID: 18820 Int'l Des: 1988-005 Owner: UNKS/GMS Country: SU operational
LEOCIRCULARPOLAR

現在のビュー

3D地球を読み込み中...

About Meteor-2

Meteor-2 (NORAD 18820) is a satellite launched Jan 30, 1988 by UNKS/GMS of SU. It operates in LEO, CIRCULAR, POLAR orbit with a mass of 1500.00 kg.

次回通過

Passes for default location (London). Set your location on the main map for personalized predictions.

高度履歴

Loading altitude history...

軌道要素

1 18820U 88005A 26194.83714288 .00000052 00000-0 32446-4 0 9993
2 18820 82.5440 302.4268 0016584 9.7473 107.2115 13.85661989943877
Epoch: Jul 13, 2026 • Age: 16 hours

現在のステータス

高度 961.4 km
遠地点 / 近地点 N/A
速度 7.37 km/s
衛星直下点 -57.99°S, 168.81°E
打ち上げ日 Jan 30, 1988
運用期間 38.4 years
タイプ other

技術仕様

分類 Payload
質量 1500.00 kg
乾燥質量 1500.00 kg
総質量 1500.00 kg
長さ 4.50 m
直径 1.40 m
スパン 4.50 m
形状 Cyl + 2 Pan
製造者 VNIEM
バスタイプ Meteor-2
フェーズステータス In Orbit
所有者/国 UNKS/GMS/SU

Most Searched